Regional Weather Roundup
Issued by NWS

Home | Current Version | Previous Version | Graphics & Text | Print | Product List | Glossary On
Versions: 1 2 3 4 5 6 7 8 9 10 11 12 13 14 15 16 17 18 19 20 21 22 23 24 25 26 27 28 29 30 31 32 33 34 35 36 37 38 39 40 41 42 43 44 45 46 47 48 49 50
000
ASUS45 KSLC 300610
RWRUT

UTAH REGIONAL WEATHER ROUNDUP
NATIONAL WEATHER SERVICE SALT LAKE CITY UT
1200 AM MDT TUE JUN 30 2015

UTZ001>011-023>025-300700-

NORTHERN UTAH

CITY           SKY/WX    TMP DP  RH WIND       PRES   REMARKS
BRIGHAM CITY   MOCLDY    80  58  46 CALM      30.02S
HILL AFB       MOCLDY    81  51  34 E9        30.07R
LOGAN          CLEAR     74  60  61 NE5       30.05R
OGDEN          MOCLDY    82  49  31 S10       30.03R
PROVO AIRPORT  MOCLDY    75  52  43 S5        30.07R
SALT LAKE CITY MOCLDY    84  53  34 S5        30.01S
VERNAL         MOCLDY    76  47  35 NW8       30.13R
WENDOVER       MOCLDY    91  45  19 NW9       30.04R
HEBER CITY     MOCLDY    68  50  52 CALM      30.18S
WEST JORDAN    CLEAR     82  46  28 SW7       30.06S

$$

UTZ012>022-026-027-300700-

SOUTHERN/CENTRAL UTAH

CITY           SKY/WX    TMP DP  RH WIND       PRES   REMARKS
BLANDING       CLEAR     74  41  30 N9        30.23S
BRYCE CANYON   MOCLDY    62  43  49 W6        30.38R
CEDAR CITY       N/A     77  45  32 SW7       30.22R
DELTA          MOCLDY    82  40  22 S8        30.08S
HANKSVILLE     PTCLDY    81  37  21 W8        30.04S
MILFORD        MOCLDY    75  49  39 S7        30.12R
MOAB/CYNLANDS  CLEAR     81  41  24 W5        30.01R
PRICE          PTCLDY    75  36  24 SE5       30.17F
ST GEORGE      MOCLDY    95  48  20 NE13      30.01R THUNDER HX  91
KANAB          MOCLDY    73  52  46 E6        30.21R

$$

REGIONAL REPORTS     COLORADO/ARIZONA

CITY           SKY/WX    TMP DP  RH WIND       PRES   REMARKS
CRAIG, CO      PTCLDY    61  46  57 SE5       30.24S
GRAND JUNCTION PTCLDY    83  41  22 E3        30.06S
RIFLE          CLEAR     72  43  35 SE8       30.16R
MONTROSE       CLEAR     78  47  33 SE7       30.18S
CORTEZ         CLEAR     64  49  57 NE6       30.19R
PAGE, AZ       MOCLDY    89  46  22 VRB3      30.06R
GRAND CANYON   MOCLDY    61  54  77 CALM      30.32S
KINGMAN        MOCLDY    84  53  34 SE12G20   30.06R
FLAGSTAFF      MOCLDY    62  52  69 W5        30.34F

$$

REGIONAL REPORTS    NEVADA/IDAHO/WYOMING

CITY           SKY/WX    TMP DP  RH WIND       PRES   REMARKS
LAS VEGAS, NV  CLOUDY   100  48  17 S12       29.83R HX  96
ELY            MOCLDY    78  38  23 SW9       30.22R
ELKO           MOCLDY    81  48  31 NE6       30.15R
POCATELLO, ID  CLEAR     72  63  73 CALM      30.13S
BURLEY         CLOUDY    82  49  31 W17       30.07R
EVANSTON, WY   MOCLDY    67  43  41 S6        30.30S
ROCK SPRINGS   MOCLDY    71  38  29 SE7       30.27S
KEMMERER       MOCLDY    64  43  45 N9        30.32S

$$



USA.gov is the U.S. government's official web portal to all federal, state and local government web resources and services.